DW6282 Weather Reports


Display with metric or nautical units.
time (UTC)temp
F
wind
direction
speed
MPH
gust
MPH
rain 1hr
in
rain 24hr
in
rain mn
in
humidity
%
barometer
mb
20260906183003 77 212 0.0 0.0 0.02 0.19 0.19 98 1012.1
20260906181506 77 212 0.0 1.0 0.01 0.18 0.18 98 1012.4
20260906180002 77 212 0.0 2.0 0.02 0.18 0.18 97 1012.4
20260906174600 76 190 0.0 3.0 0.03 0.42 0.17 97 1012.7
20260906173100 76 205 1.0 5.0 0.12 0.42 0.17 97 1012.8
20260906171609 76 201 0.0 5.0 0.17 0.42 0.17 97 1013.1
20260906170108 77 46 0.0 3.0 0.16 0.41 0.16 97 1013.3
20260906164558 77 1 0.0 6.0 0.13 0.50 0.13 96 1013.5
20260906163056 79 34 7.0 12.0 0.04 0.41 0.04 92 1012.9
20260906161551 83 326 10.0 16.0 0.00 0.37 0.00 86 1013.1
20260906160049 87 177 0.0 6.0 0.00 0.37 0.00 81 1012.8
20260906154547 90 158 0.0 1.0 0.00 0.54 0.00 80 1012.7
20260906153044 89 158 0.0 2.0 0.00 0.54 0.00 80 1012.5
20260906151546 88 158 0.0 4.0 0.00 0.54 0.00 79 1012.6
20260906150043 87 165 0.0 2.0 0.00 0.54 0.00 84 1012.5
20260906144554 87 165 0.0 3.0 0.00 0.54 0.00 82 1012.4
20260906143038 87 165 0.0 2.0 0.00 0.54 0.00 85 1012.5
20260906141536 86 164 0.0 2.0 0.00 0.54 0.00 85 1012.5
20260906140030 85 164 0.0 0.0 0.00 0.54 0.00 87 1012.4
20260906134530 84 164 0.0 0.0 0.00 0.54 0.00 90 1012.3
20260906133021 81 164 0.0 0.0 0.00 0.54 0.00 95 1012.3
20260906131518 80 165 0.0 0.0 0.00 0.54 0.00 96 1012.1
20260906130014 79 165 0.0 0.0 0.00 0.54 0.00 96 1011.8
20260906124513 78 165 0.0 0.0 0.00 0.54 0.00 96 1011.8
20260906123014 78 165 0.0 0.0 0.00 0.54 0.00 96 1011.7
20260906121510 78 165 0.0 0.0 0.00 0.54 0.00 96 1011.4
20260906120008 78 165 0.0 0.0 0.00 0.54 0.00 96 1011.2
20260906114518 78 165 0.0 1.0 0.00 0.54 0.00 96 1011.1
20260906113007 78 165 0.0 0.0 0.00 0.54 0.00 96 1011.0
20260906111504 77 165 0.0 0.0 0.00 0.54 0.00 96 1010.8
20260906110003 77 165 0.0 0.0 0.00 0.54 0.00 95 1010.7
20260906104502 78 165 0.0 0.0 0.00 0.54 0.00 96 1010.8
20260906103002 78 165 0.0 0.0 0.00 0.54 0.00 95 1010.7
20260906101502 78 165 0.0 0.0 0.00 0.54 0.00 95 1010.7
20260906100104 78 165 0.0 0.0 0.00 0.54 0.00 95 1010.6
20260906094614 78 165 0.0 0.0 0.00 0.54 0.00 95 1010.6
20260906093130 78 165 0.0 0.0 0.00 0.54 0.00 95 1010.5
20260906091606 78 165 0.0 0.0 0.00 0.54 0.00 94 1010.4
20260906090057 79 165 0.0 0.0 0.00 0.54 0.00 94 1010.4
20260906084554 79 165 0.0 0.0 0.00 0.54 0.00 94 1010.5
20260906083053 79 165 0.0 0.0 0.00 0.54 0.00 94 1010.3
20260906081552 79 165 0.0 0.0 0.00 0.54 0.00 94 1010.4
20260906080053 79 165 0.0 0.0 0.00 0.54 0.00 93 1010.5
20260906074553 79 165 0.0 0.0 0.00 0.54 0.00 93 1010.5
20260906073049 79 165 0.0 0.0 0.00 0.54 0.00 93 1010.4
20260906071549 79 165 0.0 0.0 0.00 0.54 0.00 94 1010.6
20260906070047 79 165 0.0 0.0 0.00 0.54 0.00 94 1010.6
20260906064547 79 165 0.0 0.0 0.00 0.54 0.00 94 1010.6
20260906063049 79 165 0.0 0.0 0.00 0.54 0.00 93 1010.7
20260906061545 79 165 0.0 0.0 0.00 0.54 0.00 94 1010.7
20260906060044 79 165 0.0 0.0 0.00 0.54 0.00 93 1010.6
20260906054546 79 165 0.0 0.0 0.00 0.54 0.00 93 1010.5
20260906053041 79 165 0.0 0.0 0.00 0.54 0.00 93 1010.7
20260906051550 79 165 0.0 0.0 0.00 0.54 0.00 93 1010.8
20260906050038 80 165 0.0 0.0 0.00 0.54 0.00 92 1010.8
20260906044537 80 165 0.0 0.0 0.00 0.54 0.54 92 1010.7
20260906043037 80 165 0.0 0.0 0.00 0.54 0.54 91 1010.8
20260906041537 81 165 0.0 1.0 0.00 0.54 0.54 91 1010.9
20260906040036 80 165 0.0 0.0 0.00 0.54 0.54 91 1011.0
20260906034535 80 165 0.0 0.0 0.00 0.54 0.54 92 1011.0
20260906033045 80 165 0.0 0.0 0.00 0.54 0.54 91 1011.1
20260906031539 80 165 0.0 0.0 0.00 0.54 0.54 91 1011.0
20260906030035 81 165 0.0 0.0 0.00 0.54 0.54 91 1010.9
20260906024545 81 165 0.0 0.0 0.00 0.54 0.54 91 1010.7
20260906023033 81 165 0.0 0.0 0.00 0.54 0.54 90 1010.6
20260906021532 81 165 0.0 0.0 0.00 0.54 0.54 90 1010.3
20260906020032 81 165 0.0 0.0 0.00 0.54 0.54 89 1010.1
20260906014542 82 165 0.0 0.0 0.00 0.55 0.54 88 1010.0
20260906013040 82 165 0.0 0.0 0.00 0.55 0.54 88 1009.9
20260906011528 83 164 0.0 0.0 0.00 0.55 0.54 87 1009.8
20260906010028 83 165 0.0 0.0 0.00 0.55 0.54 87 1009.9
20260906004526 83 165 0.0 0.0 0.00 0.55 0.54 86 1009.9
20260906003026 84 167 0.0 0.0 0.00 0.55 0.54 85 1010.0
20260906001525 85 167 0.0 0.0 0.00 0.55 0.54 84 1010.1
20260906000024 85 161 0.0 1.0 0.00 0.55 0.54 83 1010.3
20260905234523 85 206 0.0 2.0 0.00 0.55 0.54 82 1010.4
20260905233025 86 208 0.0 1.0 0.00 0.55 0.54 82 1010.3
20260905231521 86 204 0.0 5.0 0.00 0.55 0.54 81 1010.0
20260905230022 87 208 0.0 1.0 0.00 0.55 0.54 80 1010.1
20260905224519 87 210 0.0 4.0 0.00 0.55 0.54 79 1010.1
20260905223018 88 211 0.0 3.0 0.00 0.55 0.54 79 1010.0
20260905221518 88 141 0.0 4.0 0.00 0.55 0.54 79 1009.9
20260905220017 89 204 0.0 6.0 0.00 0.55 0.54 78 1009.9
20260905214515 90 205 0.0 3.0 0.00 0.55 0.54 77 1010.1
20260905213013 91 214 0.0 3.0 0.00 0.55 0.54 76 1010.1
20260905211515 92 74 0.0 3.0 0.00 0.55 0.54 74 1010.2
20260905210010 91 21 0.0 3.0 0.00 0.55 0.54 77 1010.2
20260905204504 89 205 0.0 4.0 0.00 0.55 0.54 82 1010.3
20260905203002 85 255 0.0 3.0 0.00 0.55 0.54 96 1010.6
20260905201502 82 207 0.0 2.0 0.00 0.55 0.54 96 1010.7
20260905194559 81 120 0.0 1.0 0.00 0.55 0.54 97 1010.9
20260905193112 80 179 0.0 0.0 0.00 0.55 0.54 97 1011.0
20260905191557 81 179 0.0 0.0 0.00 0.55 0.54 97 1011.4
20260905190100 81 179 0.0 0.0 0.00 0.55 0.54 97 1011.7
20260905184557 81 179 0.0 0.0 0.00 0.55 0.54 98 1011.8